OneWeb SL0258

operational
NORAD ID: 48976 Int'l Des: 2021-060 Owner: ONEWEBN Country: UK Constellation: oneweb
LEOCIRCULARPOLARONEWEB_TYPE

关于 OneWeb SL0258

正在加载描述...

实时位置

正在加载3D地球...

即将过境

高度历史

Altitude vs Time

uPlot chart will show altitude changes over time

两行轨道根数

1 48976U 21060K 25351.31961391 -.00000022 00000-0 -91671-4 0 9996
2 48976 87.9043 264.9987 0001609 73.1113 287.0194 13.16596232215663
Epoch: Dec 17, 2025 • Age: 8 hours

当前状态

高度 1200.0 km
速度 7.25 km/s
星下点 13.36°N, 120.76°E
发射日期 Jul 1, 2021
运行时间 4.4 years
类型 internet

技术详情

分类 Payload
质量 148.00 kg
干质量 140.00 kg
总质量 148.00 kg
长度 1.30 m
直径 1.00 m
跨度 5.00 m
形状 Trapezoid+2 pan
制造商 ONEWUS
平台类型 ARROW
阶段状态 In Orbit
所有者/国家 ONEWEBN/UK

大型星座

Loading constellations...